EW6089 Weather Reports


time (UTC)temp
C
wind
direction
speed
KPH
gust
KPH
rain 1hr
cm
rain 24hr
cm
rain mn
cm
humidity
%
barometer
mb
20260509055037 10 0.0 0.0 0.00 0.00 0.00 84 1022.8
20260509054017 10 0.0 0.0 0.00 0.00 0.00 83 1022.8
20260509053017 10 0.0 0.0 0.00 0.00 0.00 83 1022.8
20260509052017 10 0.0 0.0 0.00 0.00 0.00 82 1022.8
20260509051017 10 0.0 0.0 0.00 0.00 0.00 82 1022.7
20260509050016 11 0.0 0.0 0.00 0.00 0.00 81 1022.7
20260509045017 11 0.0 0.0 0.00 0.00 0.00 80 1022.7
20260509044037 11 0.0 0.0 0.00 0.00 0.00 80 1022.6
20260509043016 11 0.0 0.0 0.00 0.00 0.00 80 1022.6
20260509042017 11 0.0 0.0 0.00 0.00 0.00 79 1022.6
20260509041037 11 0.0 0.0 0.00 0.00 0.00 78 1022.4
20260509040017 12 0.0 0.0 0.00 0.00 0.00 78 1022.3
20260509035016 12 0.0 0.0 0.00 0.00 0.00 75 1022.2
20260509034016 12 0.0 0.0 0.00 0.00 0.00 75 1022.1
20260509033016 13 0.0 0.0 0.00 0.00 0.00 75 1022.0
20260509032017 13 0.0 0.0 0.00 0.00 0.00 73 1022.0
20260509031017 13 0.0 0.0 0.00 0.00 0.00 71 1021.9
20260509030017 14 0.0 0.0 0.00 0.00 0.00 71 1021.9
20260509025017 14 0.0 0.0 0.00 0.00 0.00 69 1021.9
20260509024017 15 0.0 0.0 0.00 0.00 0.00 65 1021.8
20260509023016 15 0.0 0.0 0.00 0.00 0.00 64 1021.7
20260509022016 15 0.0 1.6 0.00 0.00 0.00 63 1021.7
20260509021016 15 0.0 1.6 0.00 0.00 0.00 62 1021.6
20260509020016 15 0.0 1.6 0.00 0.00 0.00 60 1021.6
20260509015016 15 0.0 1.6 0.00 0.00 0.00 60 1021.7
20260509014016 16 0.0 1.6 0.00 0.00 0.00 60 1021.5
20260509013016 16 0.0 4.8 0.00 0.00 0.00 60 1021.6
20260509012016 16 135 1.6 4.8 0.00 0.00 0.00 61 1021.7
20260509011016 16 68 1.6 9.7 0.00 0.00 0.00 58 1021.6
20260509010016 16 113 1.6 9.7 0.00 0.00 0.00 56 1021.6
20260509005016 16 23 1.6 6.4 0.00 0.00 0.00 56 1021.7
20260509004016 16 45 1.6 9.7 0.00 0.00 0.00 57 1021.7
20260509003016 16 0.0 1.6 0.00 0.00 0.00 57 1021.7
20260509002016 16 0.0 3.2 0.00 0.00 0.00 57 1021.7
20260509001038 16 0.0 1.6 0.00 0.00 0.00 57 1021.7
20260509000016 16 135 1.6 4.8 0.00 0.00 0.00 56 1021.7
20260508235016 16 135 1.6 4.8 0.00 0.00 0.00 57 1021.6
20260508234016 16 68 1.6 6.4 0.00 0.00 0.00 57 1021.8
20260508233016 16 45 1.6 6.4 0.00 0.00 0.00 59 1021.7
20260508232016 16 0.0 4.8 0.00 0.00 0.00 59 1021.8
20260508231016 15 0.0 3.2 0.00 0.00 0.00 61 1021.9
20260508230016 15 135 1.6 8.0 0.00 0.00 0.00 60 1021.8
20260508225017 15 0.0 8.0 0.00 0.00 0.00 60 1021.8
20260508224016 15 0.0 3.2 0.00 0.00 0.00 62 1021.9
20260508223056 15 45 1.6 6.4 0.00 0.00 0.00 60 1021.7
20260508222016 15 158 1.6 12.9 0.00 0.00 0.00 61 1021.9
20260508221016 15 225 1.6 6.4 0.00 0.00 0.00 60 1021.6
20260508220037 15 0.0 3.2 0.00 0.00 0.00 63 1021.7
20260508215016 14 0.0 3.2 0.00 0.00 0.00 65 1021.8
20260508214017 14 0.0 1.6 0.00 0.00 0.00 64 1021.9
20260508213016 13 0.0 4.8 0.00 0.00 0.00 66 1021.8
20260508212036 13 158 1.6 4.8 0.00 0.00 0.00 67 1021.9
20260508211016 13 0.0 4.8 0.00 0.00 0.00 69 1022.0
20260508210036 13 0.0 3.2 0.00 0.00 0.00 69 1021.9
20260508205036 13 0.0 1.6 0.00 0.00 0.00 71 1021.9
20260508204016 13 0.0 1.6 0.00 0.00 0.00 70 1021.8
20260508203016 13 0.0 1.6 0.00 0.00 0.00 71 1021.8
20260508202016 12 0.0 4.8 0.00 0.00 0.00 72 1021.7
20260508201016 12 0.0 3.2 0.00 0.00 0.00 74 1021.7
20260508200016 12 0.0 3.2 0.00 0.00 0.00 75 1021.7
20260508195016 12 0.0 1.6 0.00 0.00 0.00 74 1021.7
20260508194016 12 0.0 3.2 0.00 0.00 0.00 76 1021.6
20260508193036 12 0.0 0.0 0.00 0.00 0.00 77 1021.6
20260508192016 12 0.0 1.6 0.00 0.00 0.00 77 1021.6
20260508191036 12 0.0 1.6 0.00 0.00 0.00 76 1021.6
20260508190015 12 0.0 6.4 0.00 0.00 0.00 76 1021.5
20260508185016 12 0.0 3.2 0.00 0.00 0.00 75 1021.5
20260508184035 12 0.0 4.8 0.00 0.00 0.00 77 1021.4
20260508183015 12 0.0 3.2 0.00 0.00 0.00 77 1021.2
20260508182015 11 0.0 4.8 0.00 0.00 0.00 77 1021.2
20260508181015 11 0.0 4.8 0.00 0.00 0.00 78 1021.3
20260508180015 11 0.0 0.0 0.00 0.00 0.00 78 1021.2
20260508175015 11 0.0 3.2 0.00 0.00 0.00 78 1021.0
20260508174017 11 0.0 3.2 0.00 0.00 0.00 78 1020.7
20260508173016 11 0.0 4.8 0.00 0.00 0.00 79 1020.5
20260508172016 11 0.0 1.6 0.00 0.00 0.00 82 1020.4
20260508171015 11 0.0 1.6 0.00 0.00 0.00 82 1020.2
20260508170016 11 0.0 1.6 0.00 0.00 0.00 82 1020.2
20260508165016 11 113 1.6 4.8 0.00 0.00 0.00 81 1020.0
20260508164015 11 0.0 1.6 0.00 0.00 0.00 82 1020.0
20260508163015 11 0.0 1.6 0.00 0.00 0.00 82 1020.0
20260508162016 11 0.0 3.2 0.00 0.00 0.00 82 1020.0
20260508161015 10 0.0 3.2 0.00 0.00 0.00 83 1020.0
20260508160015 10 0.0 1.6 0.00 0.00 0.00 84 1020.1
20260508155015 10 0.0 3.2 0.00 0.00 0.00 83 1020.2
20260508154035 10 0.0 3.2 0.00 0.00 0.00 84 1020.3
20260508153017 10 0.0 1.6 0.00 0.00 0.00 85 1020.3
20260508152017 10 0.0 4.8 0.00 0.00 0.00 85 1020.2
20260508151018 10 135 1.6 6.4 0.00 0.00 0.00 86 1020.0
20260508150017 10 68 3.2 11.3 0.00 0.00 0.00 85 1019.9
20260508145018 10 90 1.6 11.3 0.00 0.00 0.00 86 1019.7
20260508144015 10 113 1.6 8.0 0.00 0.00 0.00 86 1019.5
20260508143017 10 0.0 1.6 0.00 0.00 0.00 89 1019.1
20260508142018 10 0.0 1.6 0.00 0.00 0.00 88 1019.0
20260508141017 9 0.0 4.8 0.00 0.00 0.00 91 1018.9
20260508140017 9 0.0 0.0 0.00 0.00 0.00 93 1018.5
20260508135037 8 0.0 0.0 0.00 0.00 0.00 94 1018.4
20260508134017 8 0.0 0.0 0.00 0.00 0.00 94 1018.4
20260508133017 8 0.0 0.0 0.00 0.00 0.00 94 1018.2
20260508132037 8 0.0 0.0 0.00 0.00 0.00 94 1018.1
20260508131017 8 0.0 0.0 0.00 0.00 0.00 93 1017.9
20260508130018 8 0.0 0.0 0.00 0.00 0.00 93 1017.9
20260508125017 8 0.0 1.6 0.00 0.00 0.00 93 1017.8
20260508124017 8 0.0 0.0 0.00 0.00 0.00 93 1017.7
20260508123017 8 0.0 0.0 0.00 0.00 0.00 93 1017.6
20260508122017 8 0.0 0.0 0.00 0.00 0.00 93 1017.5
20260508121037 8 0.0 0.0 0.00 0.00 0.00 93 1017.5
20260508120017 8 0.0 0.0 0.00 0.00 0.00 93 1017.5
20260508115017 8 0.0 0.0 0.00 0.00 0.00 93 1017.4
20260508114039 8 0.0 0.0 0.00 0.00 0.00 93 1017.3
20260508113057 8 0.0 0.0 0.00 0.00 0.00 93 1017.3
20260508112017 8 0.0 0.0 0.00 0.00 0.00 93 1017.2
20260508111037 8 0.0 0.0 0.00 0.00 0.00 93 1017.1
20260508110017 8 0.0 0.0 0.00 0.00 0.00 93 1017.0
20260508105017 8 0.0 0.0 0.00 0.00 0.00 93 1017.0
20260508104017 8 0.0 0.0 0.00 0.00 0.00 94 1016.9
20260508103017 8 0.0 0.0 0.00 0.00 0.00 94 1016.8
20260508102037 8 0.0 0.0 0.00 0.00 0.00 94 1016.7
20260508101017 8 0.0 0.0 0.00 0.00 0.00 93 1016.7
20260508100017 8 0.0 0.0 0.00 0.00 0.00 94 1016.6
20260508095037 8 0.0 0.0 0.00 0.00 0.00 94 1016.6
20260508094037 8 0.0 0.0 0.00 0.00 0.00 94 1016.7
20260508093037 8 0.0 0.0 0.00 0.00 0.00 93 1016.6
20260508092037 8 0.0 0.0 0.00 0.00 0.00 93 1016.6
20260508091017 8 0.0 0.0 0.00 0.00 0.00 93 1016.7
20260508090017 8 0.0 0.0 0.00 0.00 0.00 94 1016.6
20260508085018 8 0.0 0.0 0.00 0.00 0.00 93 1016.6
20260508084016 8 0.0 0.0 0.00 0.00 0.00 94 1016.7
20260508083016 8 0.0 0.0 0.00 0.00 0.00 93 1016.7
20260508082016 8 0.0 0.0 0.00 0.00 0.00 93 1016.7
20260508081016 8 0.0 0.0 0.00 0.00 0.00 93 1016.7
20260508080016 8 0.0 0.0 0.00 0.00 0.00 93 1016.8
20260508075016 8 0.0 0.0 0.00 0.00 0.00 93 1016.8
20260508074017 8 0.0 0.0 0.00 0.00 0.00 93 1016.8
20260508073016 9 0.0 0.0 0.00 0.00 0.00 92 1016.7
20260508072017 9 0.0 0.0 0.00 0.00 0.00 92 1016.8
20260508071016 9 0.0 0.0 0.00 0.00 0.00 92 1016.8
20260508070016 9 0.0 0.0 0.00 0.00 0.00 92 1016.9
20260508065017 9 0.0 0.0 0.00 0.00 0.00 91 1016.9
20260508064017 9 0.0 0.0 0.00 0.00 0.00 91 1016.9
20260508063017 9 0.0 0.0 0.00 0.00 0.00 91 1017.0
20260508062037 10 0.0 0.0 0.00 0.00 0.00 90 1017.0
20260508061017 10 0.0 0.0 0.00 0.00 0.00 90 1017.0
20260508060016 10 0.0 0.0 0.00 0.00 0.00 90 1017.1